This is the latest recevied weather packets stored in our database for station/object M0TJX-1. If no packets are shown the sender has not sent any weather packets the latest 10 day(s).
| Time | Temp. | Humidity | Pressure | Rain* | Wind** | Luminosity | Snow |
|---|---|---|---|---|---|---|---|
| 1787655326 | 23.33° C | 56% | 1012 hPa | 0 mm | - | - | - |
| 1787654426 | 22.78° C | 56% | 1012.3 hPa | 0 mm | - | - | - |
| 1787653526 | 22.78° C | 58% | 1012.4 hPa | 0 mm | - | - | - |
| 1787652626 | 22.22° C | 60% | 1012.5 hPa | 0 mm | - | - | - |
| 1787651726 | 20.56° C | 67% | 1012.7 hPa | 0 mm | - | - | - |
| 1787650826 | 20° C | 68% | 1012.6 hPa | 0 mm | - | - | - |
| 1787649926 | 20° C | 70% | 1012.7 hPa | 0 mm | - | - | - |
| 1787649026 | 20° C | 70% | 1012.6 hPa | 0 mm | - | - | - |
| 1787648126 | 19.44° C | 72% | 1012.5 hPa | 0 mm | - | - | - |
| 1787647226 | 19.44° C | 72% | 1012.5 hPa | 0 mm | - | - | - |
| 1787646326 | 18.33° C | 75% | 1012.5 hPa | 0 mm | - | - | - |
| 1787645426 | 17.78° C | 78% | 1012.5 hPa | 0 mm | - | - | - |
| 1787644526 | 17.22° C | 80% | 1012.5 hPa | 0 mm | - | - | - |
| 1787643626 | 16.67° C | 81% | 1012.3 hPa | 0 mm | - | - | - |
| 1787642726 | 16.11° C | 82% | 1012.5 hPa | 0 mm | - | - | - |
| 1787641826 | 15.56° C | 83% | 1012.5 hPa | 0 mm | - | - | - |
| 1787640926 | 15.56° C | 84% | 1012.6 hPa | 0 mm | - | - | - |
| 1787640026 | 15° C | 84% | 1012.7 hPa | 0 mm | - | - | - |
| 1787638226 | 15° C | 85% | 1012.6 hPa | 0 mm | - | - | - |
| 1787637326 | 15° C | 85% | 1012.6 hPa | 0 mm | - | - | - |
| 1787636426 | 15° C | 85% | 1012.7 hPa | 0 mm | - | - | - |
| 1787635526 | 14.44° C | 85% | 1012.6 hPa | 0 mm | - | - | - |
| 1787634626 | 14.44° C | 86% | 1012.7 hPa | 0 mm | - | - | - |
| 1787633726 | 14.44° C | 86% | 1012.7 hPa | 0 mm | - | - | - |
| 1787632826 | 14.44° C | 86% | 1012.8 hPa | 0 mm | - | - | - |
* Rain latest hour (hover to see other rain measurements)
** Current wind speed in m/s (hover to see current wind gust speed)